Location: Quedlinburg
(51.7921°N, 11.1414°E)
Time: 02:30:58
(UTC+02:00)

BEESAT - Pass Details

Date: 17 March 2026
Orbit: 683 x 693 km, 98.4° (Epoch: 13 April)

Event Time Altitude Azimuth Distance (km) Brightness Sun altitude
Rises 00:40:15 0° 10° (N) 3,067 ? -39.5°
Reaches altitude 10° 00:42:35 10° 4° (N) 2,145 ? -39.5°
Enters shadow 00:43:27 15° 360° (N) 1,817 ? -39.5°
